"Timestamp","TZ","WindDir_Mean (deg)","WindSpd_Mean (km/h)","WindSpd_Min (km/h)","WindSpd_Max (km/h)","Temp_Mean (deg)","RH_Mean (%)","MSLP_Mean (hPa)","Rain_Acc (mm)","Rain_Intensity (mm/h)","Hail_Acc (hits/cm2)","Hail_Intensity (hits/cm2hr)","Solar_Mean (W/m2)"
2018/08/29 00:00:00.001,n,166,5.4,5.04,5.76,14.7,78.6,1018.72,0,0,0,0,0.032196
2018/08/29 00:01:00.000,n,182,5.4,5.04,5.76,14.7,78.7,1018.72,0,0,0,0,0.029602
2018/08/29 00:02:00.000,n,181,5.76,5.4,6.12,14.7,78.8,1018.72,0,0,0,0,0.029602
2018/08/29 00:03:00.000,n,176,6.84,6.12,7.56,14.7,78.9,1018.72,0,0,0,0,0.029602
2018/08/29 00:04:00.005,n,167,3.24,2.52,4.32,14.6,79,1018.72,0,0,0,0,0.030479
2018/08/29 00:05:00.002,n,176,4.68,4.68,5.4,14.6,79.2,1018.72,0,0,0,0,0.027847
2018/08/29 00:06:00.000,n,168,5.04,4.68,5.76,14.6,79.4,1018.72,0,0,0,0,0.035667
2018/08/29 00:07:00.012,n,189,4.68,4.32,5.4,14.5,79.5,1018.72,0,0,0,0,0.029602
2018/08/29 00:08:00.009,n,174,2.88,2.52,2.88,14.5,79.5,1018.72,0,0,0,0,0.031319
2018/08/29 00:09:00.006,n,166,4.68,3.6,5.04,14.5,79.7,1018.72,0,0,0,0,0.027847
2018/08/29 00:10:00.000,n,167,3.24,3.24,3.6,14.4,79.8,1018.72,0,0,0,0,0.029602
2018/08/29 00:11:00.000,n,187,2.16,1.8,2.52,14.4,79.8,1018.72,0,0,0,0,0.027847
2018/08/29 00:12:00.000,n,198,0.72,0.36,0.72,14.4,79.8,1018.72,0,0,0,0,0.026093
2018/08/29 00:13:00.000,n,135,1.8,1.44,2.16,14.3,79.8,1018.72,0,0,0,0,0.028725
2018/08/29 00:14:00.007,n,174,1.44,1.08,1.8,14.3,79.7,1018.72,0,0,0,0,0.026093
2018/08/29 00:15:00.004,n,109,1.44,1.08,1.8,14.3,79.8,1018.72,0,0,0,0,0.026093
2018/08/29 00:16:00.001,n,150,2.16,2.16,2.52,14.3,79.9,1018.72,0,0,0,0,0.029602
2018/08/29 00:17:00.014,n,172,2.16,2.16,2.88,14.2,80,1018.72,0,0,0,0,0.034828
2018/08/29 00:18:00.012,n,143,1.44,0.72,1.44,14.2,80,1018.72,0,0,0,0,0.037422
2018/08/29 00:19:00.000,n,83,0.72,0.72,1.08,14.2,80,1018.62,0,0,0,0,0.032196
2018/08/29 00:20:00.000,n,70,2.16,1.8,2.52,14.1,80.3,1018.62,0,0,0,0,0.031319
2018/08/29 00:21:00.000,n,57,2.16,2.16,2.52,14.1,80.5,1018.62,0,0,0,0,0.034828
2018/08/29 00:22:00.006,n,46,1.08,1.08,1.08,14.1,80.4,1018.62,0,0,0,0,0.030441
2018/08/29 00:23:00.004,n,63,1.8,1.44,2.16,14.1,80.6,1018.62,0,0,0,0,0.035667
2018/08/29 00:24:00.000,n,160,0.72,0.36,1.44,14,80.6,1018.62,0,0,0,0,0.029602
2018/08/29 00:25:00.000,n,152,1.08,1.08,1.8,14,80.6,1018.62,0,0,0,0,0.034828
2018/08/29 00:26:00.010,n,142,3.24,2.88,3.24,14,80.8,1018.62,0,0,0,0,0.028725
2018/08/29 00:27:00.007,n,150,2.88,2.52,2.88,13.9,80.8,1018.62,0,0,0,0,0.029602
2018/08/29 00:28:00.000,n,151,2.88,2.52,3.24,13.9,80.8,1018.62,0,0,0,0,0.029602
2018/08/29 00:29:00.002,n,138,2.16,1.8,2.52,13.9,81,1018.62,0,0,0,0,0.025253
2018/08/29 00:30:00.000,n,119,2.52,2.52,2.88,13.9,81.1,1018.62,0,0,0,0,0.029602
2018/08/29 00:31:00.000,n,123,1.44,1.08,1.8,13.8,81.1,1018.62,0,0,0,0,0.025253
2018/08/29 00:32:00.000,n,231,0.36,0,0.36,13.8,81.1,1018.62,0,0,0,0,0.027847
2018/08/29 00:33:00.007,n,316,0.36,0,0.36,13.8,81.1,1018.62,0,0,0,0,0.022621
2018/08/29 00:34:00.005,n,25,0.72,0.36,0.72,13.7,81.2,1018.62,0,0,0,0,0.027847
2018/08/29 00:35:00.002,n,144,1.08,0.72,1.08,13.7,81.2,1018.62,0,0,0,0,0.02697
2018/08/29 00:36:00.001,n,246,2.16,1.8,2.52,13.7,81.3,1018.62,0,0,0,0,0.033112
2018/08/29 00:37:00.000,n,316,1.08,0.72,1.44,13.6,81.5,1018.62,0,0,0,0,0.040932
2018/08/29 00:38:00.000,n,18,0.72,0.72,1.08,13.6,81.7,1018.62,0,0,0,0,0.032234
2018/08/29 00:39:00.000,n,257,1.8,1.08,1.8,13.6,81.5,1018.62,0,0,0,0,0.031357
2018/08/29 00:40:00.004,n,52,0.72,0,1.8,13.6,81.7,1018.62,0,0,0,0,0.031357
2018/08/29 00:41:00.002,n,108,1.44,1.08,1.44,13.6,81.8,1018.62,0,0,0,0,0.034828
2018/08/29 00:42:00.000,n,54,2.16,1.8,2.52,13.6,81.8,1018.62,0,0,0,0,0.035706
2018/08/29 00:43:00.012,n,120,0.72,0.72,1.08,13.6,81.7,1018.62,0,0,0,0,0.02697
2018/08/29 00:44:00.009,n,150,0.36,0.36,1.08,13.5,81.5,1018.62,0,0,0,0,0.034828
2018/08/29 00:45:00.007,n,139,0.72,0.72,1.08,13.5,81.6,1018.62,0,0,0,0,0.026131
2018/08/29 00:46:00.000,n,170,1.8,1.44,1.8,13.4,81.7,1018.62,0,0,0,0,0.029602
2018/08/29 00:47:00.002,n,149,3.24,2.88,3.6,13.4,81.9,1018.62,0,0,0,0,0.031357
2018/08/29 00:48:00.001,n,159,1.44,0.72,2.16,13.4,82,1018.62,0,0,0,0,0.028725
2018/08/29 00:49:00.000,n,144,1.44,1.08,2.16,13.4,82,1018.62,0,0,0,0,0.030479
2018/08/29 00:50:00.000,n,161,1.08,0.72,1.8,13.4,81.9,1018.62,0,0,0,0,0.024376
2018/08/29 00:51:00.009,n,137,1.8,1.8,2.16,13.4,81.9,1018.62,0,0,0,0,0.026131
2018/08/29 00:52:00.006,n,140,2.52,2.16,2.88,13.4,82,1018.62,0,0,0,0,0.022621
2018/08/29 00:53:00.004,n,133,2.52,2.16,2.88,13.4,82,1018.62,0,0,0,0,0.028725
2018/08/29 00:54:00.001,n,165,2.16,2.16,2.52,13.4,82,1018.62,0,0,0,0,0.028725
2018/08/29 00:55:00.000,n,156,4.32,3.6,5.04,13.4,82,1018.62,0,0,0,0,0.031357
2018/08/29 00:56:00.000,n,158,1.08,0.36,1.8,13.4,81.9,1018.62,0,0,0,0,0.03479
2018/08/29 00:57:00.000,n,132,2.16,1.8,2.16,13.4,81.9,1018.62,0,0,0,0,0.033073
2018/08/29 00:58:00.004,n,186,3.96,3.6,5.04,13.4,82,1018.62,0,0,0,0,0.03479
2018/08/29 00:59:00.002,n,165,5.04,4.32,5.4,13.4,82.1,1018.62,0,0,0,0,0.031357
2018/08/29 01:00:00.000,n,187,5.4,4.32,6.12,13.4,82.3,1018.62,0,0,0,0,0.031357
2018/08/29 01:01:00.000,n,136,2.16,1.44,3.24,13.4,82.2,1018.62,0,0,0,0,0.036545
2018/08/29 01:02:00.009,n,188,4.32,3.6,5.04,13.4,82.2,1018.62,0,0,0,0,0.033951
2018/08/29 01:03:00.006,n,125,5.04,3.96,5.76,13.4,82.1,1018.62,0,0,0,0,0.02697
2018/08/29 01:04:00.000,n,162,4.68,2.52,5.4,13.4,82.2,1018.62,0,0,0,0,0.035706
2018/08/29 01:05:00.001,n,169,3.6,3.24,3.96,13.4,82.3,1018.62,0,0,0,0,0.028725
2018/08/29 01:06:00.000,n,183,2.88,2.52,3.24,13.3,82.2,1018.62,0,0,0,0,0.028725
2018/08/29 01:07:00.000,n,189,1.44,0.36,1.8,13.3,82.2,1018.62,0,0,0,0,0.027847
2018/08/29 01:08:00.000,n,177,3.96,3.6,4.68,13.3,82.3,1018.62,0,0,0,0,0.02697
2018/08/29 01:09:00.007,n,183,3.24,2.52,3.96,13.3,82.4,1018.52,0,0,0,0,0.02697
2018/08/29 01:10:00.005,n,177,1.8,0.72,2.52,13.3,82.4,1018.52,0,0,0,0,0.026093
2018/08/29 01:11:00.003,n,128,2.16,1.8,2.88,13.3,82.4,1018.52,0,0,0,0,0.030441
2018/08/29 01:12:00.000,n,133,2.88,2.16,2.88,13.2,82.5,1018.52,0,0,0,0,0.026093
2018/08/29 01:13:00.000,n,177,1.08,0.72,1.08,13.2,82.5,1018.52,0,0,0,0,0.030441
2018/08/29 01:14:00.000,n,127,2.16,2.16,2.52,13.2,82.5,1018.52,0,0,0,0,0.025215
2018/08/29 01:15:00.000,n,132,2.16,1.08,2.52,13.2,82.6,1018.52,0,0,0,0,0.025215
2018/08/29 01:16:00.006,n,176,1.44,1.08,1.44,13.2,82.7,1018.52,0,0,0,0,0.022621
2018/08/29 01:17:00.004,n,136,1.8,1.8,2.16,13.1,82.7,1018.52,0,0,0,0,0.023499
2018/08/29 01:18:00.001,n,117,1.8,1.44,1.8,13.1,82.8,1018.52,0,0,0,0,0.023499
2018/08/29 01:19:00.000,n,181,2.16,1.8,2.52,13.1,82.8,1018.52,0,0,0,0,0.026093
2018/08/29 01:20:00.011,n,138,2.16,1.8,2.52,13.1,82.9,1018.52,0,0,0,0,0.027847
2018/08/29 01:21:00.010,n,67,1.44,0.72,1.8,13.1,82.9,1018.52,0,0,0,0,0.020866
2018/08/29 01:22:00.000,n,150,1.8,1.44,1.8,13.1,83,1018.52,0,0,0,0,0.02964
2018/08/29 01:23:00.002,n,142,2.16,1.8,2.16,13,82.9,1018.52,0,0,0,0,0.033112
2018/08/29 01:24:00.000,n,147,2.16,1.08,3.6,13,82.8,1018.52,0,0,0,0,0.028763
2018/08/29 01:25:00.000,n,197,0.72,0,0.72,13,82.8,1018.52,0,0,0,0,0.030479
2018/08/29 01:26:00.000,n,127,1.08,0.72,1.44,12.9,82.8,1018.42,0,0,0,0,0.02964
2018/08/29 01:27:00.006,n,163,0.72,0.36,0.72,12.9,82.9,1018.42,0,0,0,0,0.034866
2018/08/29 01:28:00.004,n,86,1.8,1.08,2.16,12.9,83.1,1018.42,0,0,0,0,0.032234
2018/08/29 01:29:00.001,n,98,0.72,0.72,1.08,12.9,83.1,1018.42,0,0,0,0,0.027008
2018/08/29 01:30:00.014,n,167,1.44,0.72,1.44,12.8,83.1,1018.42,0,0,0,0,0.030479
2018/08/29 01:31:00.000,n,115,0.36,0.36,0.36,12.8,83,1018.42,0,0,0,0,0.032234
2018/08/29 01:32:00.000,n,305,0.72,0.36,0.72,12.8,83,1018.32,0,0,0,0,0.030479
2018/08/29 01:33:00.000,n,255,1.08,1.08,1.44,12.7,82.9,1018.32,0,0,0,0,0.024376
2018/08/29 01:34:00.003,n,204,0.36,0.36,0.36,12.7,82.9,1018.32,0,0,0,0,0.025291
2018/08/29 01:35:00.000,n,224,0.36,0,0.72,12.6,83,1018.32,0,0,0,0,0.024376
2018/08/29 01:36:00.000,n,164,0.36,0.36,0.36,12.6,83.1,1018.32,0,0,0,0,0.025291
2018/08/29 01:37:00.011,n,206,1.44,1.08,1.8,12.6,83.1,1018.32,0,0,0,0,0.030479
2018/08/29 01:38:00.008,n,241,2.16,2.16,2.16,12.6,83.1,1018.32,0,0,0,0,0.023537
2018/08/29 01:39:00.005,n,236,2.88,2.88,3.6,12.5,83.1,1018.32,0,0,0,0,0.022659
2018/08/29 01:40:00.000,n,262,2.16,1.44,2.52,12.5,83.2,1018.32,0,0,0,0,0.024376
2018/08/29 01:41:00.000,n,253,2.88,2.88,2.88,12.5,83.4,1018.32,0,0,0,0,0.023537
2018/08/29 01:42:00.000,n,269,1.44,1.08,1.44,12.5,83.5,1018.32,0,0,0,0,0.028763
2018/08/29 01:43:00.000,n,256,3.6,3.24,3.96,12.5,83.3,1018.22,0,0,0,0,0.018311
2018/08/29 01:44:00.007,n,257,2.16,1.8,2.52,12.5,83.1,1018.22,0,0,0,0,0.027885
2018/08/29 01:45:00.001,n,226,1.8,1.8,2.16,12.5,83.3,1018.22,0,0,0,0,0.032234
2018/08/29 01:46:00.000,n,248,1.8,1.8,2.52,12.5,83.4,1018.22,0,0,0,0,0.033112
2018/08/29 01:47:00.011,n,267,1.44,1.44,2.16,12.4,83.5,1018.22,0,0,0,0,0.031395
2018/08/29 01:48:00.008,n,258,2.88,2.52,3.24,12.4,83.5,1018.22,0,0,0,0,0.033112
2018/08/29 01:49:00.000,n,261,1.8,1.8,1.8,12.4,83.2,1018.22,0,0,0,0,0.033112
2018/08/29 01:50:00.002,n,239,2.16,2.16,2.52,12.4,83.2,1018.22,0,0,0,0,0.030518
2018/08/29 01:51:00.000,n,236,2.16,1.8,2.16,12.4,83.2,1018.22,0,0,0,0,0.027885
2018/08/29 01:52:00.000,n,198,1.44,1.08,1.44,12.3,83.2,1018.22,0,0,0,0,0.025253
2018/08/29 01:53:00.000,n,249,2.88,2.16,3.24,12.3,83.3,1018.22,0,0,0,0,0.035744
2018/08/29 01:54:00.008,n,271,2.88,2.88,2.88,12.3,83.4,1018.22,0,0,0,0,0.028763
2018/08/29 01:55:00.005,n,229,1.44,1.08,1.8,12.3,83.3,1018.22,0,0,0,0,0.02964
2018/08/29 01:56:00.002,n,319,0.72,0.36,1.44,12.3,83.3,1018.22,0,0,0,0,0.025253
2018/08/29 01:57:00.016,n,248,1.08,0.72,1.44,12.3,83.4,1018.22,0,0,0,0,0.027046
2018/08/29 01:58:00.000,n,130,1.08,0.72,1.8,12.3,83.4,1018.22,0,0,0,0,0.025253
2018/08/29 01:59:00.000,n,180,0.36,0.36,0.72,12.3,83.2,1018.22,0,0,0,0,0.024414
2018/08/29 02:00:00.000,n,0,1.44,0.72,2.16,12.2,83.2,1018.12,0,0,0,0,0.024414
2018/08/29 02:01:00.005,n,222,1.08,0.72,1.44,12.2,83.2,1018.12,0,0,0,0,0.028763
2018/08/29 02:02:00.003,n,246,2.16,1.8,2.88,12.2,83.2,1018.12,0,0,0,0,0.02182
2018/08/29 02:03:00.000,n,236,1.08,0.36,1.44,12.2,83.2,1018.12,0,0,0,0,0.02182
2018/08/29 02:04:00.000,n,110,0.72,0.36,1.44,12.2,83.3,1018.12,0,0,0,0,0.027885
2018/08/29 02:05:00.011,n,238,1.08,0.72,1.8,12.2,83.1,1018.12,0,0,0,0,0.026093
2018/08/29 02:06:00.005,n,221,2.16,1.8,2.52,12.1,83,1018.12,0,0,0,0,0.033073
2018/08/29 02:07:00.001,n,253,2.88,2.52,3.24,12.1,83.2,1018.12,0,0,0,0,0.031357
2018/08/29 02:08:00.000,n,209,1.44,0.72,1.8,12.1,83.1,1018.12,0,0,0,0,0.029602
2018/08/29 02:09:00.000,n,234,0.72,0.36,1.44,12.1,83.5,1018.12,0,0,0,0,0.029602
2018/08/29 02:10:00.000,n,234,0.72,0.36,1.44,12.1,83.3,1018.12,0,0,0,0,0.027847
2018/08/29 02:11:00.006,n,119,0.72,0.36,0.72,12.1,83.1,1018.12,0,0,0,0,0.030479
2018/08/29 02:12:00.003,n,265,2.52,2.52,3.24,12.1,83.1,1018.12,0,0,0,0,0.033951
2018/08/29 02:13:00.000,n,282,2.88,1.8,4.32,12,83.3,1018.12,0,0,0,0,0.029602
2018/08/29 02:14:00.013,n,270,3.24,2.88,3.96,12,83.1,1018.02,0,0,0,0,0.026093
2018/08/29 02:15:00.011,n,170,1.08,0.72,1.44,12,83,1018.02,0,0,0,0,0.027847
2018/08/29 02:16:00.000,n,191,1.8,1.44,2.52,12,83,1018.02,0,0,0,0,0.033951
2018/08/29 02:17:00.000,n,304,1.44,0.36,2.16,12,83.7,1018.02,0,0,0,0,0.031357
2018/08/29 02:18:00.003,n,268,4.68,3.96,5.4,12,83.5,1018.02,0,0,0,0,0.027008
2018/08/29 02:19:00.000,n,193,2.52,2.52,3.24,12,83.3,1018.02,0,0,0,0,0.022659
2018/08/29 02:20:00.000,n,302,1.8,1.44,2.16,12,83.5,1017.92,0,0,0,0,0.024376
2018/08/29 02:21:00.010,n,262,2.88,1.44,3.6,12,83.8,1017.92,0,0,0,0,0.021744
2018/08/29 02:22:00.007,n,199,1.08,0.72,1.8,12,83.4,1018.02,0,0,0,0,0.023499
2018/08/29 02:23:00.003,n,218,2.52,2.16,2.88,12,83.2,1018.02,0,0,0,0,0.027008
2018/08/29 02:24:00.001,n,290,2.52,2.16,3.24,12,83.2,1018.02,0,0,0,0,0.023499
2018/08/29 02:25:00.000,n,243,2.88,2.16,2.88,12,83.6,1018.02,0,0,0,0,0.027008
2018/08/29 02:26:00.000,n,340,0.72,0.36,1.08,12,83.4,1018.02,0,0,0,0,0.025215
2018/08/29 02:27:00.000,n,284,2.52,2.16,2.88,11.9,83.4,1018.02,0,0,0,0,0.025215
2018/08/29 02:28:00.005,n,256,2.88,2.16,3.24,11.9,83.5,1017.92,0,0,0,0,0.027847
2018/08/29 02:29:00.002,n,294,2.52,2.16,2.88,11.9,83.4,1017.92,0,0,0,0,0.026093
2018/08/29 02:30:00.000,n,246,0.72,0.36,0.72,11.9,83.3,1017.92,0,0,0,0,0.025215
2018/08/29 02:31:00.012,n,259,1.44,0.72,1.8,11.9,83.5,1017.92,0,0,0,0,0.024376
2018/08/29 02:32:00.009,n,297,3.6,1.08,5.04,11.8,83.5,1017.92,0,0,0,0,0.025215
2018/08/29 02:33:00.006,n,123,2.52,1.8,2.88,11.8,83.4,1017.92,0,0,0,0,0.034828
2018/08/29 02:34:00.000,n,129,2.52,1.08,3.6,11.8,83.2,1017.92,0,0,0,0,0.035744
2018/08/29 02:35:00.000,n,156,1.8,1.44,2.16,11.8,83.3,1017.92,0,0,0,0,0.032234
2018/08/29 02:36:00.000,n,163,2.88,1.8,3.6,11.8,83.3,1017.92,0,0,0,0,0.029602
2018/08/29 02:37:00.000,n,154,3.6,2.88,4.32,11.8,83.5,1017.92,0,0,0,0,0.028763
2018/08/29 02:38:00.006,n,184,1.44,0.72,1.8,11.8,83.5,1017.92,0,0,0,0,0.029602
2018/08/29 02:39:00.003,n,169,2.16,1.44,2.52,11.8,83.4,1017.92,0,0,0,0,0.031357
2018/08/29 02:40:00.000,n,220,2.16,1.8,2.16,11.8,83.3,1017.92,0,0,0,0,0.028763
2018/08/29 02:41:00.014,n,190,1.44,1.08,1.44,11.7,83.4,1017.92,0,0,0,0,0.027885
2018/08/29 02:42:00.011,n,302,1.44,0.36,1.8,11.7,83.4,1017.92,0,0,0,0,0.035744
2018/08/29 02:43:00.000,n,95,0.72,0.36,1.8,11.7,83.6,1017.92,0,0,0,0,0.033112
2018/08/29 02:44:00.000,n,279,1.08,0.36,2.16,11.7,83.5,1017.92,0,0,0,0,0.026131
2018/08/29 02:45:00.002,n,126,1.08,0.36,1.8,11.7,83.6,1017.92,0,0,0,0,0.026131
2018/08/29 02:46:00.000,n,160,1.44,1.08,1.44,11.7,83.6,1017.92,0,0,0,0,0.031357
2018/08/29 02:47:00.000,n,160,1.08,1.08,1.44,11.7,83.5,1017.82,0,0,0,0,0.027008
2018/08/29 02:48:00.009,n,257,1.08,0.72,1.08,11.6,83.5,1017.82,0,0,0,0,0.021782
2018/08/29 02:49:00.006,n,137,1.8,1.08,2.16,11.6,83.6,1017.82,0,0,0,0,0.025253
2018/08/29 02:50:00.004,n,151,2.88,2.52,3.24,11.6,83.7,1017.82,0,0,0,0,0.025253
2018/08/29 02:51:00.002,n,254,1.08,0.72,1.44,11.6,83.7,1017.82,0,0,0,0,0.026131
2018/08/29 02:52:00.000,n,150,2.52,2.16,2.88,11.6,83.7,1017.82,0,0,0,0,0.023537
2018/08/29 02:53:00.000,n,121,1.44,0.72,1.8,11.6,83.7,1017.82,0,0,0,0,0.026131
2018/08/29 02:54:00.000,n,207,1.44,1.44,2.16,11.6,83.9,1017.82,0,0,0,0,0.027008
2018/08/29 02:55:00.000,n,117,1.08,0.72,1.08,11.6,83.8,1017.82,0,0,0,0,0.033073
2018/08/29 02:56:00.006,n,203,0.36,0,0.72,11.5,84,1017.82,0,0,0,0,0.031357
2018/08/29 02:57:00.003,n,125,1.8,1.08,2.52,11.5,83.8,1017.82,0,0,0,0,0.039215
2018/08/29 02:58:00.000,n,206,0.72,0.36,1.44,11.5,83.8,1017.72,0,0,0,0,0.038338
2018/08/29 02:59:00.013,n,107,1.8,1.44,2.88,11.5,83.8,1017.72,0,0,0,0,0.040054
2018/08/29 03:00:00.010,n,220,0.72,0.36,1.08,11.5,83.8,1017.82,0,0,0,0,0.039215
2018/08/29 03:01:00.000,n,120,0.36,0,0.72,11.5,83.9,1017.82,0,0,0,0,0.033989
2018/08/29 03:02:00.000,n,243,1.8,1.44,2.16,11.5,83.9,1017.82,0,0,0,0,0.031357
2018/08/29 03:03:00.002,n,159,2.52,1.8,2.88,11.5,84,1017.82,0,0,0,0,0.035706
2018/08/29 03:04:00.000,n,105,1.8,1.44,1.8,11.5,83.9,1017.82,0,0,0,0,0.033989
2018/08/29 03:05:00.000,n,229,2.52,2.52,2.88,11.4,83.9,1017.82,0,0,0,0,0.029602
2018/08/29 03:06:00.000,n,285,1.08,0.72,1.08,11.4,83.9,1017.82,0,0,0,0,0.028725
2018/08/29 03:07:00.009,n,202,0.36,0.36,0.72,11.4,84.2,1017.82,0,0,0,0,0.026131
2018/08/29 03:08:00.006,n,253,1.8,1.44,2.52,11.4,84.2,1017.72,0,0,0,0,0.029602
2018/08/29 03:09:00.003,n,193,1.08,0.36,1.8,11.4,84,1017.82,0,0,0,0,0.030479
2018/08/29 03:10:00.000,n,167,1.44,0.72,2.16,11.4,84,1017.82,0,0,0,0,0.026131
2018/08/29 03:11:00.000,n,293,1.44,1.08,1.44,11.4,84,1017.82,0,0,0,0,0.032234
2018/08/29 03:12:00.000,n,254,1.8,1.44,2.16,11.4,84,1017.82,0,0,0,0,0.030479
2018/08/29 03:13:00.000,n,264,2.52,2.16,2.88,11.4,84.2,1017.82,0,0,0,0,0.033073
2018/08/29 03:14:00.005,n,290,2.52,1.44,2.88,11.4,84.2,1017.82,0,0,0,0,0.031357
2018/08/29 03:15:00.004,n,340,1.08,0.36,1.44,11.4,84.1,1017.82,0,0,0,0,0.033989
2018/08/29 03:16:00.001,n,251,1.08,0.72,1.44,11.4,84.2,1017.82,0,0,0,0,0.033073
2018/08/29 03:17:00.000,n,111,0.36,0.36,0.36,11.3,84,1017.82,0,0,0,0,0.029602
2018/08/29 03:18:00.011,n,291,0.72,0.36,1.08,11.3,84.4,1017.82,0,0,0,0,0.028725
2018/08/29 03:19:00.000,n,171,1.08,0.72,1.08,11.3,84.3,1017.82,0,0,0,0,0.029602
2018/08/29 03:20:00.000,n,202,2.16,1.08,2.52,11.3,84.1,1017.82,0,0,0,0,0.024376
2018/08/29 03:21:00.003,n,267,1.44,1.08,1.44,11.3,84.1,1017.82,0,0,0,0,0.024376
2018/08/29 03:22:00.000,n,247,1.08,1.08,1.44,11.3,84.2,1017.82,0,0,0,0,0.027885
2018/08/29 03:23:00.000,n,286,3.24,2.88,3.6,11.3,84.4,1017.82,0,0,0,0,0.031357
2018/08/29 03:24:00.000,n,238,4.32,3.6,5.04,11.3,84.4,1017.82,0,0,0,0,0.022659
2018/08/29 03:25:00.008,n,225,0.36,0.36,1.08,11.3,84.3,1017.82,0,0,0,0,0.029602
2018/08/29 03:26:00.005,n,171,1.44,1.08,1.8,11.3,84.2,1017.82,0,0,0,0,0.020905
2018/08/29 03:27:00.002,n,257,2.52,2.16,2.52,11.3,84.2,1017.82,0,0,0,0,0.026131
2018/08/29 03:28:00.000,n,262,3.96,3.6,4.32,11.3,84.4,1017.82,0,0,0,0,0.023499
2018/08/29 03:29:00.000,n,262,3.96,3.6,4.32,11.3,84.1,1017.82,0,0,0,0,0.021744
2018/08/29 03:30:00.000,n,292,1.44,1.08,2.16,11.3,84.5,1017.82,0,0,0,0,0.028725
2018/08/29 03:31:00.002,n,256,3.24,2.88,3.6,11.3,84.2,1017.82,0,0,0,0,0.035706
2018/08/29 03:32:00.000,n,120,2.88,0.36,5.4,11.3,84,1017.82,0,0,0,0,0.035706
2018/08/29 03:33:00.000,n,262,3.96,3.24,4.32,11.2,84,1017.82,0,0,0,0,0.032234
2018/08/29 03:34:00.010,n,265,3.24,2.88,3.6,11.2,84,1017.82,0,0,0,0,0.034866
2018/08/29 03:35:00.007,n,208,3.24,1.8,5.04,11.2,84,1017.82,0,0,0,0,0.032234
2018/08/29 03:36:00.004,n,178,0.72,0.36,0.72,11.2,84,1017.82,0,0,0,0,0.033951
2018/08/29 03:37:00.000,n,260,3.24,2.88,3.6,11.1,84,1017.82,0,0,0,0,0.033951
2018/08/29 03:38:00.000,n,262,1.8,1.44,2.52,11.1,84.2,1017.82,0,0,0,0,0.030479
2018/08/29 03:39:00.000,n,205,1.08,0.72,1.44,11.1,84,1017.82,0,0,0,0,0.039215
2018/08/29 03:40:00.000,n,180,0.72,0.72,1.44,11.1,84,1017.82,0,0,0,0,0.034866
2018/08/29 03:41:00.005,n,127,0.72,0.36,1.08,11.1,84.1,1017.82,0,0,0,0,0.032234
2018/08/29 03:42:00.002,n,95,1.8,1.08,2.16,11,84,1017.82,0,0,0,0,0.030479
2018/08/29 03:43:00.000,n,202,2.16,1.44,2.52,11,84.2,1017.82,0,0,0,0,0.032234
2018/08/29 03:44:00.012,n,256,2.88,2.52,3.24,11,84.2,1017.82,0,0,0,0,0.029602
2018/08/29 03:45:00.009,n,272,2.16,1.8,2.16,11,84.3,1017.82,0,0,0,0,0.034866
2018/08/29 03:46:00.000,n,270,2.16,1.8,2.88,11,84.3,1017.82,0,0,0,0,0.034866
2018/08/29 03:47:00.000,n,193,1.44,0.72,1.8,11,84.3,1017.82,0,0,0,0,0.033073
2018/08/29 03:48:00.000,n,239,1.8,1.44,2.16,11,84.2,1017.82,0,0,0,0,0.033073
2018/08/29 03:49:00.000,n,244,1.08,1.08,1.44,11,84.2,1017.82,0,0,0,0,0.037422
2018/08/29 03:50:00.000,n,266,2.88,2.16,3.24,11,84.3,1017.82,0,0,0,0,0.028725
2018/08/29 03:51:00.010,n,182,1.44,1.44,1.44,11,84.2,1017.82,0,0,0,0,0.029602
2018/08/29 03:52:00.008,n,170,1.08,0.72,1.44,11,84.2,1017.82,0,0,0,0,0.027885
2018/08/29 03:53:00.006,n,90,1.08,0,2.52,11,84.4,1017.82,0,0,0,0,0.027885
2018/08/29 03:54:00.002,n,251,3.24,2.52,3.24,11,84.3,1017.82,0,0,0,0,0.033073
2018/08/29 03:55:00.000,n,238,3.24,2.16,3.6,11,84.3,1017.82,0,0,0,0,0.031357
2018/08/29 03:56:00.000,n,134,3.24,1.8,3.6,11,84.3,1017.82,0,0,0,0,0.027885
2018/08/29 03:57:00.000,n,194,0.36,0,0.36,11,84.2,1017.82,0,0,0,0,0.027885
2018/08/29 03:58:00.000,n,202,2.16,1.8,2.16,11,84.2,1017.82,0,0,0,0,0.027885
2018/08/29 03:59:00.004,n,247,2.16,2.16,2.52,11,84.3,1017.82,0,0,0,0,0.028725
2018/08/29 04:00:00.001,n,238,2.52,2.16,2.88,11,84.3,1017.82,0,0,0,0,0.027008
2018/08/29 04:01:00.000,n,233,1.8,1.8,2.16,11,84.2,1017.82,0,0,0,0,0.026093
2018/08/29 04:02:00.011,n,335,2.16,2.16,2.52,11,84.6,1017.82,0,0,0,0,0.027008
2018/08/29 04:03:00.009,n,170,1.44,1.08,1.8,11,84.4,1017.82,0,0,0,0,0.033073
2018/08/29 04:04:00.000,n,164,0.72,0.36,0.72,11,84.2,1017.82,0,0,0,0,0.025253
2018/08/29 04:05:00.002,n,253,2.88,2.52,3.96,11,84.1,1017.82,0,0,0,0,0.023537
2018/08/29 04:06:00.000,n,251,2.88,2.52,3.24,11,84.4,1017.82,0,0,0,0,0.026093
2018/08/29 04:07:00.000,n,256,1.44,1.08,1.44,11,84.3,1017.82,0,0,0,0,0.026093
2018/08/29 04:08:00.000,n,233,1.8,1.8,2.16,10.9,84.1,1017.82,0,0,0,0,0.026093
2018/08/29 04:09:00.009,n,195,2.16,1.44,2.52,10.9,84.2,1017.82,0,0,0,0,0.029602
2018/08/29 04:10:00.007,n,242,2.52,2.16,2.88,10.9,84.2,1017.82,0,0,0,0,0.026093
2018/08/29 04:11:00.004,n,262,1.08,0.72,1.08,10.9,84.5,1017.82,0,0,0,0,0.025253
2018/08/29 04:12:00.002,n,218,1.08,0.72,1.08,10.9,84.3,1017.72,0,0,0,0,0.027885
2018/08/29 04:13:00.000,n,96,1.44,1.08,1.8,10.9,84.2,1017.72,0,0,0,0,0.027885
2018/08/29 04:14:00.000,n,238,1.44,0.72,1.44,10.9,84.2,1017.82,0,0,0,0,0.026093
2018/08/29 04:15:00.000,n,313,2.16,0.72,3.24,10.9,84.7,1017.82,0,0,0,0,0.024376
2018/08/29 04:16:00.000,n,55,2.88,2.52,3.24,10.9,84.5,1017.72,0,0,0,0,0.026093
2018/08/29 04:17:00.004,n,142,0.72,0.72,1.08,10.9,84.4,1017.72,0,0,0,0,0.020027
2018/08/29 04:18:00.003,n,197,0.72,0.72,1.08,10.9,84.2,1017.82,0,0,0,0,0.026131
2018/08/29 04:19:00.000,n,134,2.16,1.8,2.52,10.9,84.1,1017.82,0,0,0,0,0.032234
2018/08/29 04:20:00.012,n,183,1.8,1.44,1.8,10.9,84,1017.82,0,0,0,0,0.028725
2018/08/29 04:21:00.009,n,146,0.72,0.36,1.08,10.9,84,1017.82,0,0,0,0,0.032234
2018/08/29 04:22:00.000,n,173,0.72,0.36,1.08,10.9,84,1017.82,0,0,0,0,0.032234
2018/08/29 04:23:00.002,n,128,1.44,0.72,1.8,10.8,84.2,1017.82,0,0,0,0,0.041809
2018/08/29 04:24:00.000,n,206,1.8,1.44,1.8,10.8,84.2,1017.82,0,0,0,0,0.027885
2018/08/29 04:25:00.000,n,125,2.16,1.08,2.52,10.8,84.3,1017.82,0,0,0,0,0.035706
2018/08/29 04:26:00.000,n,125,2.88,2.16,3.24,10.9,84.2,1017.82,0,0,0,0,0.031357
2018/08/29 04:27:00.006,n,118,0.72,0.36,1.08,10.9,84.1,1017.92,0,0,0,0,0.030479
2018/08/29 04:28:00.004,n,218,0.72,0.36,0.72,10.9,84,1017.92,0,0,0,0,0.02964
2018/08/29 04:29:00.002,n,99,0.72,0,1.44,10.8,84,1017.92,0,0,0,0,0.031357
2018/08/29 04:30:00.000,n,65,1.44,1.08,1.8,10.8,84.2,1017.92,0,0,0,0,0.028725
2018/08/29 04:31:00.000,n,46,2.16,1.8,2.88,10.9,84.1,1017.92,0,0,0,0,0.028725
2018/08/29 04:32:00.000,n,102,1.8,1.44,2.16,10.8,84,1017.92,0,0,0,0,0.02964
2018/08/29 04:33:00.000,n,72,1.44,1.08,2.16,10.8,84,1017.92,0,0,0,0,0.027885
2018/08/29 04:34:00.000,n,163,0.36,0,0.72,10.8,84,1017.92,0,0,0,0,0.032234
2018/08/29 04:35:00.005,n,344,1.08,0.72,1.44,10.8,83.8,1017.92,0,0,0,0,0.026131
2018/08/29 04:36:00.002,n,160,0.36,0.36,0.36,10.8,83.9,1017.92,0,0,0,0,0.027008
2018/08/29 04:37:00.000,n,28,0.72,0.36,1.08,10.8,83.9,1017.92,0,0,0,0,0.032234
2018/08/29 04:38:00.013,n,7,0.72,0.36,0.72,10.8,84.1,1017.92,0,0,0,0,0.027885
2018/08/29 04:39:00.010,n,106,1.08,1.08,1.44,10.8,84,1017.92,0,0,0,0,0.027008
2018/08/29 04:40:00.000,n,118,1.44,1.44,1.8,10.8,83.9,1017.92,0,0,0,0,0.026131
2018/08/29 04:41:00.000,n,116,1.08,1.08,1.08,10.8,83.8,1017.92,0,0,0,0,0.025253
2018/08/29 04:42:00.000,n,136,3.24,2.88,3.6,10.8,83.9,1017.92,0,0,0,0,0.027008
2018/08/29 04:43:00.000,n,136,1.44,1.08,2.16,10.8,83.9,1017.92,0,0,0,0,0.026131
2018/08/29 04:44:00.000,n,163,1.08,0.72,1.8,10.8,84,1017.92,0,0,0,0,0.023537
2018/08/29 04:45:00.009,n,298,0.36,0.36,0.72,10.8,83.8,1017.92,0,0,0,0,0.025253
2018/08/29 04:46:00.006,n,113,1.8,1.44,2.16,10.8,83.7,1017.92,0,0,0,0,0.027008
2018/08/29 04:47:00.004,n,111,1.08,1.08,1.44,10.7,83.9,1017.92,0,0,0,0,0.028725
2018/08/29 04:48:00.001,n,149,2.88,2.16,3.96,10.7,84,1017.92,0,0,0,0,0.021782
2018/08/29 04:49:00.000,n,134,2.52,2.16,2.88,10.8,84.1,1017.92,0,0,0,0,0.02964
2018/08/29 04:50:00.000,n,157,1.44,1.08,1.8,10.8,83.9,1017.92,0,0,0,0,0.022659
2018/08/29 04:51:00.000,n,167,3.6,3.6,4.32,10.8,84.2,1017.92,0,0,0,0,0.020027
2018/08/29 04:52:00.006,n,136,2.88,1.8,3.24,10.8,84.2,1017.92,0,0,0,0,0.027008
2018/08/29 04:53:00.004,n,185,2.52,2.16,2.52,10.8,84.2,1017.92,0,0,0,0,0.022659
2018/08/29 04:54:00.000,n,193,1.44,0.72,2.52,10.8,84,1017.92,0,0,0,0,0.021782
2018/08/29 04:55:00.000,n,336,0.36,0.36,0.72,10.8,83.9,1017.92,0,0,0,0,0.027008
2018/08/29 04:56:00.012,n,314,1.44,1.08,2.16,10.8,83.8,1017.92,0,0,0,0,0.023537
2018/08/29 04:57:00.011,n,270,2.16,1.8,2.16,10.7,83.9,1017.92,0,0,0,0,0.038338